This demonstration page uses our WeatherBlox Daily Observations layout. Learn more.

Left ArrowRight Arrow

Hourly Observations for August 7, 2020

Temp ( °F °C ) Dew Point ( °F °C ) Humidity (%) Winds ( mph kmh ) Pressure ( in mb ) Visibility ( mi km ) Precip ( " mm )
12:15 am 00:15 Clear 57 13.8 56 13.1 96 96 Calm 30.13 1020 10 16 0.00 0.00
12:35 am 00:35 Clear 57 14.1 56 13.1 94 94 Calm 30.13 1020 10 16 0.00 0.00
12:55 am 00:55 Clear 57 13.8 55 12.9 94 94 Calm 30.13 1020 10 16 0.00 0.00
1:15 am 01:15 Clear 57 13.7 55 12.7 94 94 Calm 30.14 1021 10 16 0.00 0.00
1:35 am 01:35 Clear 55 13 55 12.5 97 97 Calm 30.14 1021 10 16 0.00 0.00
1:55 am 01:55 Clear 55 12.7 54 12.2 97 97 Calm 30.13 1020 10 16 0.00 0.00
2:15 am 02:15 Clear 55 13 54 12.4 96 96 Calm 30.14 1021 10 16 0.00 0.00
2:35 am 02:35 Clear 55 12.7 54 12.3 97 97 Calm 30.14 1021 10 16 0.00 0.00
2:55 am 02:55 Clear 55 12.6 54 12.3 98 98 Calm 30.14 1021 10 16 0.00 0.00
3:10 am 03:10 Clear 55 13 55 12.5 97 97 Calm 30.14 1021 10 16 0.00 0.00
3:35 am 03:35 Clear 54 12.1 54 12 99 99 Calm 30.15 1021 10 16 0.00 0.00
3:55 am 03:55 Clear 54 12.2 53 11.9 98 98 Calm 30.15 1021 10 16 0.00 0.00
4:15 am 04:15 Clear 54 12.1 53 11.8 98 98 Calm 30.15 1021 10 16 0.00 0.00
4:35 am 04:35 Clear 54 12 53 11.6 97 97 Calm 30.14 1021 10 16 0.00 0.00
4:55 am 04:55 Clear 54 12 53 11.6 97 97 Calm 30.15 1021 10 16 0.00 0.00
5:15 am 05:15 Clear 54 12.1 53 11.8 98 98 Calm 30.15 1021 10 16 0.00 0.00
5:35 am 05:35 Clear 54 12 53 11.6 97 97 Calm 30.15 1021 10 16 0.00 0.00
5:55 am 05:55 Clear 53 11.7 53 11.4 98 98 NNW 3 6 30.15 1021 10 16 0.00 0.00
6:15 am 06:15 Clear 54 12 53 11.5 97 97 Calm 30.16 1021 10 16 0.00 0.00
6:35 am 06:35 Clear 54 12 53 11.5 97 97 Calm 30.17 1022 10 16 0.00 0.00
6:55 am 06:55 Sunny 53 11.6 52 11.2 97 97 Calm 30.18 1022 10 16 0.00 0.00
7:15 am 07:15 Sunny 53 11.8 52 11.3 97 97 Calm 30.17 1022 10 16 0.00 0.00
7:35 am 07:35 Sunny 54 12.2 53 11.7 97 97 Calm 30.17 1022 10 16 0.00 0.00
7:55 am 07:55 Sunny 57 13.7 55 13 96 96 Calm 30.18 1022 10 16 0.00 0.00
8:15 am 08:15 Sunny 59 15 56 13.4 90 90 Calm 30.17 1022 10 16 0.00 0.00
8:35 am 08:35 Sunny 60 15.7 56 13.6 87 87 Calm 30.18 1022 10 16 0.00 0.00
8:55 am 08:55 Sunny 62 16.7 58 14.6 88 88 Calm 30.17 1022 10 16 0.00 0.00
9:15 am 09:15 Sunny 64 18 59 15 83 83 Calm 30.17 1022 10 16 0.00 0.00
9:35 am 09:35 Sunny 67 19.6 61 15.9 79 79 Calm 30.17 1022 10 16 0.00 0.00
9:55 am 09:55 Sunny 69 20.5 60 15.6 74 74 Calm 30.16 1021 10 16 0.00 0.00
10:15 am 10:15 Sunny 69 20.8 59 14.9 69 69 ENE 3 6 30.16 1021 10 16 0.00 0.00
10:35 am 10:35 Sunny 71 21.6 59 15.2 67 67 NE 3 6 30.16 1021 10 16 0.00 0.00
10:55 am 10:55 Sunny 72 22 59 15 65 65 NNE 6 9 30.16 1021 10 16 0.00 0.00
11:15 am 11:15 Sunny 73 22.6 60 15.4 64 64 ENE 5 7 30.17 1022 10 16 0.00 0.00
11:35 am 11:35 Sunny 73 22.6 59 15.1 63 63 NE 5 7 30.17 1022 10 16 0.00 0.00
11:55 am 11:55 Sunny 73 23 59 15.1 61 61 E 6 9 30.17 1022 10 16 0.00 0.00
12:15 pm 12:15 Partly Cloudy 73 22.9 60 15.3 62 62 NNE 5 7 30.17 1022 10 16 0.00 0.00
12:35 pm 12:35 Partly Cloudy 75 23.7 59 15.1 59 59 E 6 9 30.16 1021 10 16 0.00 0.00
12:55 pm 12:55 Partly Cloudy 74 23.6 57 14.1 55 55 E 6 9 30.16 1021 10 16 0.00 0.00
1:15 pm 13:15 Sunny 75 23.7 60 15.3 59 59 NNE 6 9 30.15 1021 10 16 0.00 0.00
1:35 pm 13:35 Sunny 74 23.6 58 14.7 58 58 E 3 6 30.15 1021 10 16 0.00 0.00
1:55 pm 13:55 Sunny 75 23.8 57 14.1 55 55 ENE 5 7 30.15 1021 10 16 0.00 0.00
2:15 pm 14:15 Sunny 74 23.6 57 13.9 55 55 ENE 6 9 30.16 1021 10 16 0.00 0.00
2:35 pm 14:35 Sunny 76 24.3 55 12.9 49 49 W 6 9 30.15 1021 10 16 0.00 0.00
2:55 pm 14:55 Partly Cloudy 74 23.4 57 14.1 56 56 ENE 5 7 30.15 1021 10 16 0.00 0.00
3:15 pm 15:15 Partly Cloudy 76 24.3 59 14.9 56 56 N 7 11 30.15 1021 10 16 0.00 0.00
3:35 pm 15:35 Sunny 76 24.6 58 14.2 52 52 NE 6 9 30.15 1021 10 16 0.00 0.00
3:55 pm 15:55 Sunny 75 23.8 56 13.3 52 52 ENE 5 7 30.15 1021 10 16 0.00 0.00
4:15 pm 16:15 Sunny 77 24.8 56 13.1 48 48 Calm 30.14 1021 10 16 0.00 0.00
4:35 pm 16:35 Sunny 76 24.7 58 14.3 52 52 N 5 7 30.14 1021 10 16 0.00 0.00
4:55 pm 16:55 Sunny 76 24.7 57 13.7 50 50 NNE 6 9 30.13 1020 10 16 0.00 0.00
5:15 pm 17:15 Sunny 76 24.6 54 12.4 47 47 Calm 30.13 1020 10 16 0.00 0.00
5:35 pm 17:35 Sunny 76 24.6 57 14.1 52 52 NNE 5 7 30.13 1020 10 16 0.00 0.00
5:55 pm 17:55 Sunny 76 24.6 58 14.3 53 53 NE 6 9 30.12 1020 10 16 0.00 0.00
6:15 pm 18:15 Sunny 76 24.5 57 13.9 52 52 NNE 3 6 30.13 1020 10 16 0.00 0.00
6:35 pm 18:35 Sunny 75 24.1 58 14.4 55 55 N 5 7 30.13 1020 10 16 0.00 0.00
6:55 pm 18:55 Sunny 75 23.9 58 14.5 56 56 Calm 30.12 1020 10 16 0.00 0.00
7:15 pm 19:15 Sunny 74 23.6 58 14.5 57 57 N 3 6 30.12 1020 10 16 0.00 0.00
7:35 pm 19:35 Sunny 73 22.8 60 15.6 64 64 NE 5 7 30.13 1020 10 16 0.00 0.00
7:55 pm 19:55 Sunny 71 21.9 62 16.7 72 72 NNE 3 6 30.13 1020 10 16 0.00 0.00
8:15 pm 20:15 Sunny 69 20.8 62 16.9 78 78 NE 3 6 30.13 1020 10 16 0.00 0.00
8:35 pm 20:35 Sunny 67 19.4 62 16.9 86 86 NE 5 7 30.14 1021 10 16 0.00 0.00
8:55 pm 20:55 Clear 65 18.1 61 16.1 88 88 ENE 5 7 30.14 1021 10 16 0.00 0.00
9:15 pm 21:15 Clear 65 18.1 59 14.8 81 81 NE 5 7 30.14 1021 10 16 0.00 0.00
9:35 pm 21:35 Clear 64 17.6 59 14.9 84 84 Calm 30.15 1021 10 16 0.00 0.00
9:55 pm 21:55 Clear 62 16.7 58 14.7 88 88 Calm 30.16 1021 10 16 0.00 0.00
10:15 pm 22:15 Clear 60 15.5 58 14.6 94 94 Calm 30.17 1022 10 16 0.00 0.00
10:35 pm 22:35 Clear 59 15.2 58 14.5 96 96 Calm 30.17 1022 10 16 0.00 0.00
10:55 pm 22:55 Clear 59 15 57 14.1 94 94 Calm 30.17 1022 10 16 0.00 0.00
11:15 pm 23:15 Clear 58 14.7 56 13.5 93 93 Calm 30.18 1022 10 16 0.00 0.00
11:35 pm 23:35 Clear 58 14.2 56 13.3 94 94 Calm 30.18 1022 10 16 0.00 0.00
11:55 pm 23:55 Clear 56 13.2 55 12.5 96 96 Calm 30.18 1022 10 16 0.00 0.00

Powered by AerisWeather